TimeAKDT,TemperatureF,Dew PointF,Humidity,Sea Level PressureIn,VisibilityMPH,Wind Direction,Wind SpeedMPH,Gust SpeedMPH,PrecipitationIn,Events,Conditions,WindDirDegrees,DateUTC
12:53 AM,27.0,19.9,75,30.26,9.0,NE,13.8,-,0.00,Snow,Light Snow,50,2013-09-17 08:53:00
1:53 AM,27.0,19.9,75,30.25,9.0,ENE,13.8,20.7,0.00,Snow,Light Snow,70,2013-09-17 09:53:00
2:53 AM,27.0,21.0,78,30.25,8.0,NE,13.8,-,0.00,Snow,Light Snow,50,2013-09-17 10:53:00
3:53 AM,27.0,21.0,78,30.24,7.0,ENE,12.7,-,0.01,Snow,Light Snow,60,2013-09-17 11:53:00
4:04 AM,26.6,19.4,74,30.23,9.0,NE,16.1,-,0.00,Snow,Light Snow,50,2013-09-17 12:04:00
4:53 AM,27.0,21.9,81,30.23,9.0,NE,10.4,-,0.00,Snow,Light Snow,50,2013-09-17 12:53:00
5:37 AM,26.6,21.2,80,30.22,9.0,NE,12.7,-,0.00,Snow,Light Snow,50,2013-09-17 13:37:00
5:53 AM,27.0,21.0,78,30.22,9.0,NE,12.7,-,0.00,Snow,Light Snow,50,2013-09-17 13:53:00
6:53 AM,26.1,21.9,84,30.22,9.0,NE,17.3,-,0.00,Snow,Light Snow,50,2013-09-17 14:53:00
7:53 AM,27.0,21.9,81,30.21,5.0,NE,15.0,-,0.00,Snow,Light Snow,50,2013-09-17 15:53:00
8:04 AM,26.6,21.2,80,30.21,7.0,NE,15.0,-,0.00,Snow,Light Snow,50,2013-09-17 16:04:00
8:53 AM,27.0,21.0,78,30.21,9.0,NE,18.4,-,0.00,Snow,Light Snow,40,2013-09-17 16:53:00
9:53 AM,26.1,21.9,84,30.20,9.0,NE,16.1,-,0.00,Snow,Light Snow,50,2013-09-17 17:53:00
10:53 AM,27.0,21.0,78,30.21,9.0,ENE,17.3,-,0.00,Snow,Light Snow,60,2013-09-17 18:53:00
11:53 AM,27.0,21.0,78,30.20,9.0,NE,16.1,-,0.00,Snow,Light Snow,50,2013-09-17 19:53:00
12:02 PM,26.6,21.2,80,30.20,8.0,NE,17.3,-,0.00,Snow,Light Snow,50,2013-09-17 20:02:00
12:53 PM,27.0,19.9,75,30.20,9.0,ENE,11.5,-,0.00,Snow,Light Snow,60,2013-09-17 20:53:00
1:25 PM,28.4,19.4,69,30.19,10.0,NE,12.7,-,0.00,,Overcast,50,2013-09-17 21:25:00
1:53 PM,28.0,19.9,72,30.19,10.0,NE,17.3,-,0.00,,Overcast,50,2013-09-17 21:53:00
2:53 PM,28.9,19.9,69,30.19,10.0,NE,12.7,-,N/A,,Overcast,50,2013-09-17 22:53:00
3:53 PM,28.9,21.9,75,30.18,7.0,NE,13.8,-,0.00,Snow,Light Snow,50,2013-09-17 23:53:00
4:18 PM,28.4,24.8,86,30.17,1.8,NE,19.6,-,0.00,Snow,Light Snow,40,2013-09-18 00:18:00
4:23 PM,28.4,24.8,86,30.17,3.0,NE,17.3,-,0.00,Snow,Light Snow,40,2013-09-18 00:23:00
4:53 PM,28.9,23.0,78,30.17,3.0,NE,18.4,-,0.00,Snow,Light Snow,40,2013-09-18 00:53:00
5:53 PM,30.0,21.0,69,30.17,10.0,NE,17.3,25.3,0.00,,Overcast,40,2013-09-18 01:53:00
5:58 PM,30.2,21.2,69,30.17,10.0,NE,19.6,-,N/A,,Overcast,40,2013-09-18 01:58:00
6:53 PM,30.0,21.0,69,30.17,10.0,NE,20.7,25.3,N/A,,Mostly Cloudy,50,2013-09-18 02:53:00
7:04 PM,28.4,21.2,74,30.17,10.0,NE,15.0,-,N/A,,Overcast,40,2013-09-18 03:04:00
7:53 PM,28.9,19.0,67,30.17,10.0,NE,16.1,-,N/A,,Overcast,50,2013-09-18 03:53:00
8:53 PM,28.9,23.0,78,30.17,9.0,NE,15.0,-,0.00,Snow,Light Snow,40,2013-09-18 04:53:00
9:53 PM,28.9,23.0,78,30.16,10.0,ENE,17.3,-,0.00,,Overcast,60,2013-09-18 05:53:00
10:29 PM,28.4,23.0,80,30.15,10.0,NE,18.4,-,N/A,,Overcast,40,2013-09-18 06:29:00
10:53 PM,28.9,24.1,82,30.16,10.0,NE,17.3,-,N/A,,Overcast,40,2013-09-18 06:53:00
11:22 PM,28.4,23.0,80,30.15,10.0,ENE,18.4,-,N/A,,Overcast,60,2013-09-18 07:22:00
11:53 PM,28.9,23.0,78,30.16,9.0,NE,17.3,24.2,N/A,,Overcast,50,2013-09-18 07:53:00